Change the Weather History Date:

Saturday, April 27, 2013

  Actual Average (KTOC) Record (KTOC)
Temperature  
Mean Temperature 51 °F -  
Max Temperature 55 °F 75 °F 86 °F (2014)
Min Temperature 47 °F 50 °F 52 °F (2014)
Degree Days  
Heating Degree Days 14    
Growing Degree Days 1 (Base 50)    
Moisture  
Dew Point 47 °F    
Average Humidity 89    
Maximum Humidity 98    
Minimum Humidity 57    
Precipitation  
Precipitation 0.91 in - - ()
Sea Level Pressure  
Sea Level Pressure 30.33 in    
Wind  
Wind Speed 1 mph (SE)    
Max Wind Speed 6 mph    
Max Gust Speed -    
Visibility 7 miles    
Events Rain    
Averages and records for this station are not official NWS values.
T = Trace of Precipitation, MM = Missing Value Source: NWS Daily Summary

Daily Weather History Graph

Daily Weather History Graph

Search for Another Location

Airport or City:

Trip Planner

Search our weather history database for the weather conditions in past years. The results will help you decide how hot, cold, wet, or windy it might be!

Date:

Astronomy

Apr. 27, 2013 Rise Set
Actual Time 6:46 AM EDT 8:16 PM EDT
Civil Twilight 6:19 AM EDT 8:43 PM EDT
Nautical Twilight 5:47 AM EDT 9:15 PM EDT
Astronomical Twilight 5:13 AM EDT 9:49 PM EDT
Moon 10:40 PM EDT (4/27) 8:07 AM EDT (4/27)
Length of Visible Light 14h 23m
Length of Day
13h 29m
Waning Gibbous, 95% of the Moon is Illuminated
Apr 27
Waning Gibbous
May 2
Last Quarter
May 9
New
May 18
First Quarter
May 25
Full

Hourly Weather History & Observations

Time (EDT) Temp. Dew Point Humidity Pressure Visibility Wind Dir Wind Speed Gust Speed Precip Events Conditions
12:15 AM 54.1 °F 44.1 °F 69% 30.36 in 10.0 mi ENE 4.6 mph - N/A Rain Light Rain
12:35 AM 54.0 °F 43.3 °F 67% 30.37 in 10.0 mi SE 3.5 mph - N/A   Overcast
12:55 AM 55.9 °F 41.0 °F 57% 30.36 in 10.0 mi East 4.6 mph - N/A   Overcast
1:15 AM 54.9 °F 43.0 °F 64% 30.36 in 10.0 mi Calm Calm - N/A   Overcast
1:35 AM 54.1 °F 43.9 °F 68% 30.37 in 10.0 mi Calm Calm - N/A   Overcast
1:55 AM 53.8 °F 44.8 °F 72% 30.38 in 10.0 mi West 5.8 mph - N/A   Overcast
2:15 AM 54.5 °F 43.3 °F 66% 30.38 in 10.0 mi Calm Calm - N/A   Overcast
2:35 AM 53.6 °F 44.4 °F 71% 30.37 in 10.0 mi Calm Calm - N/A   Overcast
2:55 AM 52.7 °F 45.9 °F 78% 30.37 in 10.0 mi Calm Calm - N/A Rain Light Rain
3:15 AM 51.1 °F 47.3 °F 87% 30.36 in 10.0 mi Calm Calm - 0.01 in Rain Light Rain
3:35 AM 51.4 °F 46.8 °F 84% 30.35 in 10.0 mi Calm Calm - 0.01 in Rain Light Rain
4:15 AM 50.7 °F 47.3 °F 88% 30.34 in 10.0 mi Calm Calm - 0.01 in Rain Light Rain
4:35 AM 50.4 °F 48.2 °F 92% 30.34 in 7.0 mi Calm Calm - 0.02 in Rain Light Rain
4:55 AM 50.2 °F 48.0 °F 92% 30.35 in 5.0 mi Calm Calm - 0.03 in Rain Rain
5:15 AM 50.0 °F 48.2 °F 94% 30.35 in 5.0 mi Calm Calm - 0.02 in Rain Rain
5:35 AM 50.2 °F 48.4 °F 94% 30.35 in 5.0 mi Calm Calm - 0.04 in Rain Rain
5:55 AM 50.0 °F 48.6 °F 95% 30.35 in 5.0 mi Calm Calm - 0.06 in Rain Light Rain
6:15 AM 50.0 °F 48.7 °F 95% 30.34 in 4.0 mi Calm Calm - 0.02 in Rain Light Rain
7:35 AM 49.3 °F 48.6 °F 97% 30.32 in 5.0 mi Calm Calm - 0.01 in Rain Light Rain
7:55 AM 49.8 °F 49.1 °F 97% 30.33 in 7.0 mi Calm Calm - 0.01 in   Mostly Cloudy
8:15 AM 50.2 °F 49.5 °F 97% 30.34 in 10.0 mi Calm Calm - N/A   Overcast
8:35 AM 50.9 °F 49.3 °F 94% 30.34 in 10.0 mi Calm Calm - N/A   Overcast
8:55 AM 50.9 °F 48.9 °F 93% 30.35 in 10.0 mi Calm Calm - N/A   Light Drizzle
9:15 AM 51.4 °F 50.0 °F 95% 30.34 in 7.0 mi Calm Calm - N/A   Light Drizzle
9:35 AM 51.8 °F 49.8 °F 93% 30.34 in 10.0 mi Calm Calm - N/A   Overcast
9:55 AM 52.7 °F 49.1 °F 88% 30.34 in 10.0 mi Calm Calm - N/A   Overcast
10:15 AM 53.1 °F 49.1 °F 86% 30.34 in 10.0 mi Calm Calm - N/A   Overcast
10:35 AM 53.6 °F 49.5 °F 86% 30.34 in 10.0 mi ENE 3.5 mph - N/A   Overcast
10:55 AM 53.8 °F 50.0 °F 87% 30.35 in 10.0 mi East 3.5 mph - N/A   Overcast
11:15 AM 53.6 °F 50.0 °F 88% 30.36 in 10.0 mi Calm Calm - N/A   Light Drizzle
11:35 AM 53.6 °F 41.4 °F 63% 30.36 in 10.0 mi South 4.6 mph - N/A   Light Drizzle
11:55 AM 53.1 °F 40.6 °F 63% 30.37 in 10.0 mi Calm Calm - N/A   Light Drizzle
12:15 PM 50.4 °F 40.8 °F 70% 30.39 in 5.0 mi SSE 4.6 mph - 0.02 in Rain Rain
12:35 PM 48.4 °F 44.4 °F 86% 30.39 in 3.0 mi Calm Calm - 0.07 in Rain Rain
12:55 PM 48.4 °F 45.5 °F 90% 30.39 in 5.0 mi Calm Calm - 0.09 in Rain Rain
1:15 PM 48.4 °F 45.9 °F 91% 30.39 in 5.0 mi Calm Calm - 0.03 in Rain Rain
1:35 PM 47.7 °F 45.9 °F 93% 30.38 in 4.0 mi ESE 3.5 mph - 0.09 in Rain Rain
1:55 PM 47.7 °F 46.6 °F 96% 30.38 in 4.0 mi Calm Calm - 0.12 in Rain Light Rain
2:15 PM 48.2 °F 46.8 °F 95% 30.37 in 4.0 mi Calm Calm - 0.02 in Rain Rain
2:35 PM 48.0 °F 45.5 °F 91% 30.36 in 4.0 mi Calm Calm - 0.06 in Rain Rain
2:55 PM 48.0 °F 44.6 °F 88% 30.35 in 10.0 mi Calm Calm - 0.07 in Rain Light Rain
3:15 PM 48.4 °F 46.2 °F 92% 30.34 in 10.0 mi Calm Calm - N/A Rain Light Rain
3:35 PM 48.2 °F 46.8 °F 95% 30.35 in 5.0 mi WSW 3.5 mph - 0.04 in Rain Rain
3:55 PM 48.2 °F 47.3 °F 97% 30.35 in 5.0 mi WSW 5.8 mph - 0.07 in Rain Light Rain
4:15 PM 47.8 °F 46.9 °F 97% 30.34 in 5.0 mi West 4.6 mph - 0.03 in Rain Light Rain
4:35 PM 48.2 °F 47.3 °F 97% 30.31 in 7.0 mi Calm Calm - 0.04 in Rain Rain
4:55 PM 48.2 °F 46.6 °F 94% 30.30 in 10.0 mi Calm Calm - 0.04 in Rain Light Rain
5:15 PM 48.2 °F 46.4 °F 93% 30.30 in 7.0 mi Calm Calm - 0.01 in Rain Rain
5:35 PM 48.2 °F 46.6 °F 94% 30.30 in 5.0 mi Calm Calm - 0.02 in Rain Rain
5:55 PM 48.2 °F 46.8 °F 95% 30.30 in 4.0 mi Calm Calm - 0.06 in Rain Rain
6:15 PM 47.7 °F 46.9 °F 97% 30.31 in 3.0 mi Calm Calm - 0.07 in Rain Heavy Rain
6:35 PM 47.5 °F 46.9 °F 98% 30.30 in 1.2 mi Calm Calm - 0.17 in Rain Heavy Rain
6:55 PM 47.3 °F 46.8 °F 98% 30.28 in 2.0 mi Calm Calm - 0.25 in Rain Rain
7:35 PM 47.5 °F 46.9 °F 98% 30.27 in 7.0 mi Calm Calm - 0.01 in Rain Rain
7:55 PM 47.3 °F 46.8 °F 98% 30.27 in 4.0 mi ENE 3.5 mph - 0.05 in Rain Rain
8:15 PM 47.3 °F 46.8 °F 98% 30.26 in 7.0 mi Calm Calm - N/A Rain Light Rain
8:35 PM 47.3 °F 46.6 °F 97% 30.26 in 10.0 mi Calm Calm - N/A   Overcast
8:55 PM 47.5 °F 46.8 °F 97% 30.25 in 10.0 mi Calm Calm - N/A   Overcast
9:15 PM 47.3 °F 46.8 °F 98% 30.25 in 7.0 mi Calm Calm - N/A   Overcast
9:35 PM 47.5 °F 46.9 °F 98% 30.24 in 7.0 mi Calm Calm - N/A   Overcast
9:55 PM 47.5 °F 46.9 °F 98% 30.25 in 7.0 mi Calm Calm - N/A   Overcast
10:15 PM 47.5 °F 46.9 °F 98% 30.24 in 7.0 mi Calm Calm - N/A   Overcast
10:35 PM 47.5 °F 46.8 °F 97% 30.24 in 7.0 mi Calm Calm - N/A   Overcast
10:55 PM 47.5 °F 46.9 °F 98% 30.23 in 5.0 mi Calm Calm - N/A   Overcast
11:15 PM 47.5 °F 46.9 °F 98% 30.23 in 7.0 mi Calm Calm - 0.01 in   Light Drizzle
11:35 PM 47.7 °F 46.9 °F 97% 30.23 in 7.0 mi Calm Calm - 0.01 in   Overcast
11:55 PM 47.7 °F 46.9 °F 97% 30.23 in 4.0 mi Calm Calm - 0.03 in Rain Heavy Rain